| time (UTC) | temp F | wind direction | speed MPH | gust MPH | rain 1hr in | rain 24hr in | rain mn in | humidity % | barometer mb |
| 20260905171320 | 59 | 139 | 0.0 | 3.0 | 0.00 | 0.06 | 0.00 | 87 | 1017.6 |
| 20260905170822 | 59 | 141 | 0.0 | 3.0 | 0.00 | 0.06 | 0.00 | 87 | 1017.6 |
| 20260905170329 | 59 | 294 | 0.0 | 0.0 | 0.00 | 0.06 | 0.00 | 89 | 1017.7 |
| 20260905165831 | 58 | 327 | 0.0 | 1.0 | 0.00 | 0.06 | 0.00 | 90 | 1017.7 |
| 20260905165338 | 58 | 311 | 0.0 | 1.0 | 0.00 | 0.06 | 0.00 | 91 | 1017.7 |
| 20260905164820 | 57 | 346 | 0.0 | 4.0 | 0.00 | 0.06 | 0.00 | 91 | 1017.7 |
| 20260905164318 | 57 | 20 | 0.0 | 4.0 | 0.00 | 0.06 | 0.00 | 92 | 1017.7 |
| 20260905163820 | 58 | 325 | 0.0 | 1.0 | 0.00 | 0.06 | 0.00 | 92 | 1017.6 |
| 20260905163327 | 58 | 141 | 0.0 | 4.0 | 0.00 | 0.06 | 0.00 | 93 | 1017.6 |
| 20260905162829 | 58 | 155 | 0.0 | 4.0 | 0.00 | 0.06 | 0.00 | 93 | 1017.6 |
| 20260905162334 | 58 | 82 | 0.0 | 0.0 | 0.00 | 0.06 | 0.00 | 94 | 1017.6 |
| 20260905161817 | 57 | 49 | 0.0 | 3.0 | 0.00 | 0.06 | 0.00 | 94 | 1017.7 |
| 20260905161316 | 57 | 52 | 0.0 | 0.0 | 0.00 | 0.06 | 0.00 | 93 | 1017.7 |
| 20260905160826 | 57 | 52 | 0.0 | 0.0 | 0.00 | 0.06 | 0.00 | 93 | 1017.7 |
| 20260905160325 | 56 | 42 | 0.0 | 1.0 | 0.00 | 0.06 | 0.00 | 94 | 1017.7 |
| 20260905155824 | 56 | 42 | 0.0 | 4.0 | 0.00 | 0.06 | 0.00 | 94 | 1017.7 |
| 20260905155331 | 55 | 142 | 0.0 | 4.0 | 0.00 | 0.06 | 0.00 | 94 | 1017.6 |
| 20260905154813 | 55 | 131 | 0.0 | 1.0 | 0.00 | 0.06 | 0.00 | 94 | 1017.7 |
| 20260905154312 | 55 | 89 | 0.0 | 2.0 | 0.00 | 0.06 | 0.00 | 94 | 1017.6 |
| 20260905153822 | 55 | 89 | 0.0 | 2.0 | 0.00 | 0.06 | 0.00 | 94 | 1017.6 |
| 20260905153322 | 54 | 148 | 0.0 | 1.0 | 0.00 | 0.06 | 0.00 | 93 | 1017.6 |
| 20260905152815 | 54 | 94 | 0.0 | 1.0 | 0.00 | 0.06 | 0.00 | 93 | 1017.7 |
| 20260905152321 | 54 | 126 | 0.0 | 1.0 | 0.00 | 0.06 | 0.00 | 93 | 1017.6 |
| 20260905151907 | 54 | 128 | 0.0 | 1.0 | 0.00 | 0.06 | 0.00 | 93 | 1017.7 |
| 20260905151321 | 54 | 136 | 0.0 | 1.0 | 0.00 | 0.06 | 0.00 | 93 | 1017.6 |
| 20260905150831 | 54 | 101 | 0.0 | 0.0 | 0.00 | 0.06 | 0.00 | 93 | 1017.6 |
| 20260905150330 | 54 | 108 | 0.0 | 1.0 | 0.00 | 0.06 | 0.00 | 93 | 1017.7 |
| 20260905145813 | 54 | 163 | 0.0 | 0.0 | 0.00 | 0.06 | 0.00 | 93 | 1017.7 |
| 20260905145312 | 54 | 143 | 0.0 | 0.0 | 0.00 | 0.06 | 0.00 | 93 | 1017.6 |
| 20260905144820 | 54 | 118 | 0.0 | 0.0 | 0.00 | 0.06 | 0.00 | 93 | 1017.6 |
| 20260905144319 | 54 | 126 | 0.0 | 0.0 | 0.00 | 0.06 | 0.00 | 93 | 1017.6 |
| 20260905143829 | 54 | 96 | 0.0 | 0.0 | 0.00 | 0.06 | 0.00 | 93 | 1017.6 |
| 20260905143311 | 54 | 134 | 0.0 | 0.0 | 0.00 | 0.06 | 0.00 | 93 | 1017.5 |
| 20260905142814 | 54 | 153 | 0.0 | 0.0 | 0.00 | 0.06 | 0.00 | 93 | 1017.5 |
| 20260905142319 | 54 | 91 | 0.0 | 0.0 | 0.00 | 0.06 | 0.00 | 93 | 1017.5 |
| 20260905141820 | 54 | 131 | 0.0 | 0.0 | 0.00 | 0.06 | 0.00 | 93 | 1017.5 |
| 20260905141328 | 54 | 127 | 0.0 | 0.0 | 0.00 | 0.06 | 0.00 | 93 | 1017.4 |
| 20260905140830 | 55 | 136 | 0.0 | 0.0 | 0.00 | 0.06 | 0.00 | 93 | 1017.5 |
| 20260905140328 | 55 | 171 | 0.0 | 0.0 | 0.00 | 0.06 | 0.00 | 93 | 1017.5 |
| 20260905135818 | 55 | 97 | 0.0 | 0.0 | 0.00 | 0.06 | 0.00 | 93 | 1017.4 |
| 20260905135314 | 55 | 105 | 0.0 | 0.0 | 0.00 | 0.06 | 0.00 | 93 | 1017.5 |
| 20260905134823 | 55 | 96 | 0.0 | 0.0 | 0.00 | 0.06 | 0.00 | 93 | 1017.5 |
| 20260905134330 | 55 | 120 | 0.0 | 0.0 | 0.00 | 0.06 | 0.00 | 93 | 1017.4 |
| 20260905133818 | 55 | 140 | 0.0 | 0.0 | 0.00 | 0.06 | 0.00 | 93 | 1017.3 |
| 20260905133410 | 55 | 140 | 0.0 | 0.0 | 0.00 | 0.06 | 0.00 | 93 | 1017.3 |
| 20260905132834 | 55 | 132 | 0.0 | 0.0 | 0.00 | 0.06 | 0.00 | 93 | 1017.3 |
| 20260905132313 | 55 | 132 | 0.0 | 0.0 | 0.00 | 0.06 | 0.00 | 93 | 1017.2 |
| 20260905131822 | 55 | 145 | 0.0 | 0.0 | 0.00 | 0.06 | 0.00 | 93 | 1017.3 |
| 20260905131321 | 55 | 91 | 0.0 | 0.0 | 0.00 | 0.06 | 0.00 | 93 | 1017.3 |
| 20260905130824 | 55 | 91 | 0.0 | 0.0 | 0.00 | 0.06 | 0.00 | 93 | 1017.2 |
| 20260905130330 | 55 | 91 | 0.0 | 0.0 | 0.00 | 0.06 | 0.00 | 93 | 1017.2 |
| 20260905125813 | 55 | 138 | 0.0 | 0.0 | 0.00 | 0.06 | 0.00 | 93 | 1017.2 |
| 20260905125319 | 55 | 141 | 0.0 | 0.0 | 0.00 | 0.06 | 0.00 | 93 | 1017.1 |
| 20260905124829 | 55 | 133 | 0.0 | 0.0 | 0.00 | 0.06 | 0.00 | 93 | 1017.1 |
| 20260905124328 | 55 | 141 | 0.0 | 0.0 | 0.00 | 0.06 | 0.00 | 93 | 1017.1 |
| 20260905123838 | 55 | 101 | 0.0 | 0.0 | 0.00 | 0.06 | 0.00 | 93 | 1017.1 |
| 20260905123317 | 55 | 101 | 0.0 | 0.0 | 0.00 | 0.06 | 0.00 | 93 | 1017.2 |
| 20260905122821 | 55 | 101 | 0.0 | 0.0 | 0.00 | 0.06 | 0.00 | 93 | 1017.1 |
| 20260905122320 | 55 | 119 | 0.0 | 0.0 | 0.00 | 0.06 | 0.00 | 93 | 1017.0 |
| 20260905121829 | 55 | 119 | 0.0 | 0.0 | 0.00 | 0.06 | 0.00 | 93 | 1017.0 |
| 20260905121328 | 55 | 115 | 0.0 | 0.0 | 0.00 | 0.06 | 0.00 | 93 | 1016.9 |
| 20260905120838 | 55 | 117 | 0.0 | 0.0 | 0.00 | 0.06 | 0.00 | 93 | 1017.0 |
| 20260905120317 | 55 | 117 | 0.0 | 0.0 | 0.00 | 0.11 | 0.00 | 93 | 1016.9 |
| 20260905115819 | 55 | 117 | 0.0 | 0.0 | 0.00 | 0.11 | 0.00 | 93 | 1017.0 |
| 20260905115325 | 55 | 116 | 0.0 | 0.0 | 0.00 | 0.11 | 0.00 | 93 | 1017.0 |
| 20260905114827 | 55 | 132 | 0.0 | 0.0 | 0.00 | 0.11 | 0.00 | 93 | 1017.0 |
| 20260905114327 | 55 | 132 | 0.0 | 0.0 | 0.00 | 0.11 | 0.00 | 93 | 1017.0 |
| 20260905113836 | 55 | 132 | 0.0 | 0.0 | 0.00 | 0.11 | 0.00 | 93 | 1016.9 |
| 20260905113315 | 55 | 134 | 0.0 | 0.0 | 0.00 | 0.11 | 0.00 | 93 | 1016.9 |
| 20260905112818 | 55 | 134 | 0.0 | 0.0 | 0.00 | 0.11 | 0.00 | 93 | 1016.9 |
| 20260905112324 | 55 | 134 | 0.0 | 0.0 | 0.00 | 0.11 | 0.00 | 93 | 1016.9 |
| 20260905111827 | 55 | 134 | 0.0 | 0.0 | 0.00 | 0.11 | 0.00 | 93 | 1016.9 |
| 20260905111333 | 55 | 134 | 0.0 | 0.0 | 0.00 | 0.11 | 0.00 | 93 | 1016.8 |
| 20260905110815 | 55 | 134 | 0.0 | 0.0 | 0.00 | 0.11 | 0.00 | 93 | 1016.9 |
| 20260905110322 | 55 | 134 | 0.0 | 0.0 | 0.00 | 0.14 | 0.00 | 93 | 1016.9 |
| 20260905105830 | 55 | 134 | 0.0 | 0.0 | 0.00 | 0.14 | 0.00 | 93 | 1016.9 |
| 20260905105328 | 55 | 134 | 0.0 | 0.0 | 0.00 | 0.14 | 0.00 | 93 | 1017.0 |
| 20260905104814 | 55 | 134 | 0.0 | 0.0 | 0.00 | 0.14 | 0.00 | 93 | 1017.0 |
| 20260905104321 | 55 | 134 | 0.0 | 0.0 | 0.00 | 0.14 | 0.00 | 93 | 1017.0 |
| 20260905103822 | 55 | 134 | 0.0 | 0.0 | 0.00 | 0.14 | 0.00 | 93 | 1017.0 |
| 20260905103327 | 55 | 134 | 0.0 | 0.0 | 0.00 | 0.14 | 0.00 | 93 | 1017.0 |
| 20260905102829 | 54 | 134 | 0.0 | 0.0 | 0.00 | 0.14 | 0.00 | 93 | 1017.0 |
| 20260905102315 | 54 | 134 | 0.0 | 0.0 | 0.00 | 0.14 | 0.00 | 93 | 1017.0 |
| 20260905101817 | 54 | 134 | 0.0 | 0.0 | 0.00 | 0.14 | 0.00 | 93 | 1017.0 |
| 20260905101316 | 54 | 134 | 0.0 | 0.0 | 0.00 | 0.14 | 0.00 | 93 | 1017.0 |
| 20260905100825 | 55 | 134 | 0.0 | 0.0 | 0.00 | 0.14 | 0.00 | 93 | 1017.0 |
| 20260905100325 | 55 | 134 | 0.0 | 0.0 | 0.00 | 0.14 | 0.00 | 93 | 1017.0 |
| 20260905095835 | 55 | 134 | 0.0 | 0.0 | 0.00 | 0.14 | 0.00 | 93 | 1017.1 |
| 20260905095314 | 55 | 134 | 0.0 | 0.0 | 0.00 | 0.14 | 0.00 | 93 | 1017.0 |
| 20260905094816 | 55 | 134 | 0.0 | 0.0 | 0.00 | 0.14 | 0.00 | 93 | 1017.1 |
| 20260905094323 | 55 | 134 | 0.0 | 0.0 | 0.00 | 0.14 | 0.00 | 93 | 1017.1 |
| 20260905093825 | 55 | 134 | 0.0 | 0.0 | 0.00 | 0.14 | 0.00 | 93 | 1017.0 |
| 20260905093321 | 55 | 134 | 0.0 | 0.0 | 0.00 | 0.14 | 0.00 | 93 | 1016.9 |
| 20260905092830 | 55 | 134 | 0.0 | 0.0 | 0.00 | 0.14 | 0.00 | 93 | 1016.9 |
| 20260905092330 | 55 | 134 | 0.0 | 0.0 | 0.00 | 0.14 | 0.00 | 93 | 1017.0 |
| 20260905091812 | 55 | 134 | 0.0 | 0.0 | 0.00 | 0.14 | 0.00 | 93 | 1017.0 |
| 20260905091319 | 55 | 134 | 0.0 | 0.0 | 0.00 | 0.14 | 0.00 | 93 | 1017.0 |
| 20260905090821 | 55 | 134 | 0.0 | 0.0 | 0.00 | 0.14 | 0.00 | 93 | 1016.9 |
| 20260905090327 | 55 | 134 | 0.0 | 0.0 | 0.00 | 0.14 | 0.00 | 93 | 1016.9 |
| 20260905085824 | 55 | 128 | 0.0 | 0.0 | 0.00 | 0.14 | 0.00 | 93 | 1016.9 |
| 20260905085311 | 55 | 136 | 0.0 | 0.0 | 0.00 | 0.14 | 0.00 | 93 | 1016.9 |
| 20260905084814 | 55 | 136 | 0.0 | 0.0 | 0.00 | 0.14 | 0.00 | 93 | 1016.9 |
| 20260905084313 | 55 | 136 | 0.0 | 0.0 | 0.00 | 0.14 | 0.00 | 93 | 1016.8 |
| 20260905083322 | 55 | 136 | 0.0 | 0.0 | 0.00 | 0.14 | 0.00 | 93 | 1016.7 |
| 20260905082831 | 55 | 136 | 0.0 | 0.0 | 0.00 | 0.14 | 0.00 | 93 | 1016.7 |
| 20260905082331 | 55 | 136 | 0.0 | 0.0 | 0.00 | 0.14 | 0.00 | 93 | 1016.7 |
| 20260905081814 | 55 | 136 | 0.0 | 0.0 | 0.00 | 0.14 | 0.00 | 93 | 1016.7 |
| 20260905081320 | 55 | 136 | 0.0 | 0.0 | 0.00 | 0.14 | 0.00 | 93 | 1016.7 |
| 20260905080320 | 55 | 131 | 0.0 | 0.0 | 0.00 | 0.14 | 0.00 | 93 | 1016.6 |
| 20260905075829 | 55 | 127 | 0.0 | 0.0 | 0.00 | 0.14 | 0.00 | 93 | 1016.6 |
| 20260905075325 | 55 | 119 | 0.0 | 0.0 | 0.00 | 0.14 | 0.00 | 93 | 1016.6 |
| 20260905074834 | 55 | 119 | 0.0 | 0.0 | 0.00 | 0.14 | 0.00 | 93 | 1016.6 |
| 20260905074313 | 55 | 119 | 0.0 | 0.0 | 0.00 | 0.14 | 0.00 | 93 | 1016.5 |
| 20260905072833 | 55 | 79 | 0.0 | 0.0 | 0.00 | 0.14 | 0.00 | 93 | 1016.5 |
| 20260905072312 | 55 | 139 | 0.0 | 0.0 | 0.00 | 0.14 | 0.00 | 93 | 1016.4 |
| 20260905071815 | 55 | 139 | 0.0 | 0.0 | 0.00 | 0.14 | 0.00 | 93 | 1016.4 |
| 20260905071321 | 55 | 139 | 0.0 | 0.0 | 0.00 | 0.14 | 0.00 | 93 | 1016.4 |
| 20260905070331 | 55 | 139 | 0.0 | 0.0 | 0.00 | 0.14 | 0.14 | 93 | 1016.4 |
| 20260905065817 | 55 | 139 | 0.0 | 0.0 | 0.00 | 0.14 | 0.14 | 93 | 1016.4 |
| 20260905065318 | 55 | 139 | 0.0 | 0.0 | 0.00 | 0.14 | 0.14 | 93 | 1016.3 |
| 20260905064820 | 55 | 139 | 0.0 | 0.0 | 0.00 | 0.14 | 0.14 | 93 | 1016.3 |
| 20260905064326 | 55 | 139 | 0.0 | 0.0 | 0.00 | 0.14 | 0.14 | 93 | 1016.2 |
| 20260905063828 | 55 | 139 | 0.0 | 0.0 | 0.00 | 0.14 | 0.14 | 93 | 1016.2 |
| 20260905063334 | 55 | 139 | 0.0 | 0.0 | 0.00 | 0.14 | 0.14 | 93 | 1016.2 |
| 20260905062817 | 55 | 139 | 0.0 | 0.0 | 0.00 | 0.14 | 0.14 | 93 | 1016.0 |
| 20260905062316 | 55 | 139 | 0.0 | 0.0 | 0.00 | 0.14 | 0.14 | 93 | 1016.1 |
| 20260905061825 | 55 | 139 | 0.0 | 0.0 | 0.00 | 0.14 | 0.14 | 93 | 1016.0 |
| 20260905061325 | 55 | 139 | 0.0 | 0.0 | 0.00 | 0.14 | 0.14 | 93 | 1016.1 |
| 20260905060828 | 55 | 139 | 0.0 | 0.0 | 0.00 | 0.14 | 0.14 | 93 | 1016.1 |
| 20260905060333 | 55 | 139 | 0.0 | 0.0 | 0.00 | 0.14 | 0.14 | 93 | 1016.0 |
| 20260905055816 | 55 | 139 | 0.0 | 0.0 | 0.00 | 0.14 | 0.14 | 93 | 1016.0 |
| 20260905055315 | 55 | 139 | 0.0 | 0.0 | 0.00 | 0.14 | 0.14 | 93 | 1016.0 |
| 20260905054825 | 55 | 139 | 0.0 | 0.0 | 0.00 | 0.14 | 0.14 | 93 | 1016.0 |
| 20260905054324 | 55 | 139 | 0.0 | 0.0 | 0.00 | 0.14 | 0.14 | 93 | 1016.0 |
| 20260905053814 | 55 | 139 | 0.0 | 0.0 | 0.00 | 0.14 | 0.14 | 93 | 1016.0 |
| 20260905053319 | 55 | 139 | 0.0 | 0.0 | 0.00 | 0.14 | 0.14 | 93 | 1016.0 |
| 20260905052821 | 55 | 139 | 0.0 | 0.0 | 0.00 | 0.14 | 0.14 | 93 | 1016.0 |
| 20260905052319 | 55 | 139 | 0.0 | 0.0 | 0.00 | 0.14 | 0.14 | 93 | 1016.0 |
| 20260905051829 | 55 | 139 | 0.0 | 0.0 | 0.00 | 0.14 | 0.14 | 93 | 1016.0 |
| 20260905051328 | 55 | 139 | 0.0 | 0.0 | 0.00 | 0.14 | 0.14 | 93 | 1016.0 |
| 20260905050837 | 55 | 139 | 0.0 | 0.0 | 0.00 | 0.14 | 0.14 | 93 | 1015.9 |
| 20260905050316 | 55 | 139 | 0.0 | 0.0 | 0.00 | 0.14 | 0.14 | 93 | 1015.9 |
| 20260905045818 | 55 | 139 | 0.0 | 0.0 | 0.00 | 0.14 | 0.14 | 93 | 1016.0 |
| 20260905045324 | 55 | 139 | 0.0 | 0.0 | 0.00 | 0.14 | 0.14 | 93 | 1016.0 |
| 20260905044827 | 55 | 139 | 0.0 | 0.0 | 0.00 | 0.14 | 0.14 | 93 | 1015.9 |
| 20260905044326 | 55 | 139 | 0.0 | 0.0 | 0.00 | 0.14 | 0.14 | 93 | 1015.9 |
| 20260905043835 | 55 | 139 | 0.0 | 0.0 | 0.00 | 0.14 | 0.14 | 93 | 1015.9 |
| 20260905043315 | 55 | 139 | 0.0 | 0.0 | 0.00 | 0.14 | 0.14 | 93 | 1015.8 |
| 20260905042817 | 55 | 139 | 0.0 | 0.0 | 0.00 | 0.14 | 0.14 | 93 | 1015.9 |
| 20260905042323 | 55 | 139 | 0.0 | 0.0 | 0.00 | 0.14 | 0.14 | 93 | 1016.0 |
| 20260905041826 | 55 | 139 | 0.0 | 0.0 | 0.00 | 0.14 | 0.14 | 93 | 1015.9 |
| 20260905041332 | 55 | 139 | 0.0 | 0.0 | 0.00 | 0.14 | 0.14 | 93 | 1016.0 |
| 20260905040814 | 55 | 139 | 0.0 | 0.0 | 0.00 | 0.14 | 0.14 | 93 | 1015.9 |
| 20260905040335 | 55 | 139 | 0.0 | 0.0 | 0.00 | 0.14 | 0.14 | 93 | 1015.8 |
| 20260905035844 | 55 | 139 | 0.0 | 0.0 | 0.00 | 0.14 | 0.14 | 93 | 1015.7 |
| 20260905035351 | 55 | 139 | 0.0 | 0.0 | 0.00 | 0.14 | 0.14 | 93 | 1015.5 |
| 20260905034859 | 56 | 139 | 0.0 | 0.0 | 0.00 | 0.14 | 0.14 | 93 | 1015.5 |
| 20260905034337 | 56 | 139 | 0.0 | 0.0 | 0.00 | 0.14 | 0.14 | 93 | 1015.4 |
| 20260905033846 | 56 | 139 | 0.0 | 0.0 | 0.00 | 0.14 | 0.14 | 93 | 1015.4 |
| 20260905033353 | 56 | 139 | 0.0 | 0.0 | 0.00 | 0.14 | 0.14 | 93 | 1015.4 |
| 20260905032834 | 56 | 139 | 0.0 | 0.0 | 0.00 | 0.14 | 0.14 | 93 | 1015.4 |
| 20260905032314 | 56 | 139 | 0.0 | 0.0 | 0.00 | 0.14 | 0.14 | 93 | 1015.3 |
| 20260905031823 | 56 | 119 | 0.0 | 0.0 | 0.00 | 0.14 | 0.14 | 93 | 1015.3 |
| 20260905031321 | 56 | 118 | 0.0 | 0.0 | 0.00 | 0.14 | 0.14 | 93 | 1015.2 |
| 20260905030830 | 56 | 112 | 0.0 | 0.0 | 0.00 | 0.14 | 0.14 | 93 | 1015.2 |
| 20260905030315 | 57 | 111 | 0.0 | 0.0 | 0.00 | 0.14 | 0.14 | 93 | 1015.2 |
| 20260905025817 | 57 | 101 | 0.0 | 0.0 | 0.00 | 0.14 | 0.14 | 93 | 1015.2 |
| 20260905025322 | 57 | 101 | 0.0 | 0.0 | 0.00 | 0.14 | 0.14 | 93 | 1015.1 |
| 20260905024831 | 57 | 101 | 0.0 | 0.0 | 0.00 | 0.14 | 0.14 | 93 | 1015.1 |
| 20260905024336 | 57 | 101 | 0.0 | 0.0 | 0.00 | 0.14 | 0.14 | 93 | 1015.0 |
| 20260905023817 | 57 | 101 | 0.0 | 0.0 | 0.00 | 0.14 | 0.14 | 93 | 1015.0 |
| 20260905023317 | 57 | 101 | 0.0 | 0.0 | 0.00 | 0.14 | 0.14 | 92 | 1015.1 |
| 20260905022823 | 57 | 101 | 0.0 | 0.0 | 0.00 | 0.14 | 0.14 | 92 | 1015.1 |
| 20260905022322 | 57 | 101 | 0.0 | 0.0 | 0.00 | 0.14 | 0.14 | 92 | 1015.1 |
| 20260905021824 | 58 | 101 | 0.0 | 0.0 | 0.00 | 0.14 | 0.14 | 92 | 1015.1 |
| 20260905021331 | 58 | 110 | 0.0 | 0.0 | 0.00 | 0.14 | 0.14 | 92 | 1015.0 |
| 20260905020814 | 58 | 113 | 0.0 | 0.0 | 0.00 | 0.14 | 0.14 | 92 | 1015.0 |
| 20260905020313 | 58 | 110 | 0.0 | 0.0 | 0.00 | 0.14 | 0.14 | 92 | 1015.0 |
| 20260905015823 | 58 | 140 | 0.0 | 0.0 | 0.00 | 0.14 | 0.14 | 92 | 1015.0 |
| 20260905015322 | 58 | 105 | 0.0 | 0.0 | 0.00 | 0.14 | 0.14 | 92 | 1014.9 |
| 20260905013813 | 59 | 122 | 0.0 | 0.0 | 0.00 | 0.14 | 0.14 | 91 | 1014.7 |
| 20260905013312 | 59 | 119 | 0.0 | 0.0 | 0.00 | 0.14 | 0.14 | 92 | 1014.7 |
| 20260905012822 | 59 | 115 | 0.0 | 0.0 | 0.00 | 0.14 | 0.14 | 91 | 1014.6 |
| 20260905012321 | 59 | 152 | 0.0 | 0.0 | 0.00 | 0.14 | 0.14 | 91 | 1014.7 |
| 20260905011911 | 59 | 140 | 0.0 | 0.0 | 0.00 | 0.14 | 0.14 | 91 | 1014.6 |
| 20260905011325 | 59 | 141 | 0.0 | 0.0 | 0.00 | 0.14 | 0.14 | 90 | 1014.5 |
| 20260905010814 | 59 | 91 | 0.0 | 0.0 | 0.00 | 0.14 | 0.14 | 90 | 1014.6 |
| 20260905010313 | 59 | 117 | 0.0 | 0.0 | 0.00 | 0.14 | 0.14 | 90 | 1014.6 |
| 20260905005816 | 59 | 89 | 0.0 | 0.0 | 0.00 | 0.14 | 0.14 | 90 | 1014.6 |
| 20260905005322 | 59 | 134 | 0.0 | 0.0 | 0.00 | 0.14 | 0.14 | 90 | 1014.5 |
| 20260905004825 | 59 | 81 | 0.0 | 0.0 | 0.00 | 0.14 | 0.14 | 90 | 1014.5 |
| 20260905004331 | 59 | 97 | 0.0 | 0.0 | 0.00 | 0.14 | 0.14 | 90 | 1014.4 |
| 20260905003814 | 59 | 119 | 0.0 | 0.0 | 0.00 | 0.14 | 0.14 | 90 | 1014.4 |
| 20260905003313 | 59 | 193 | 0.0 | 0.0 | 0.00 | 0.14 | 0.14 | 90 | 1014.3 |
| 20260905002823 | 59 | 106 | 0.0 | 0.0 | 0.00 | 0.14 | 0.14 | 90 | 1014.4 |
| 20260905002322 | 59 | 311 | 0.0 | 0.0 | 0.00 | 0.14 | 0.14 | 91 | 1014.5 |
| 20260905001317 | 59 | 177 | 0.0 | 0.0 | 0.00 | 0.14 | 0.14 | 91 | 1014.6 |
| 20260905000827 | 59 | 81 | 0.0 | 0.0 | 0.00 | 0.14 | 0.14 | 91 | 1014.7 |
| 20260905000326 | 59 | 78 | 0.0 | 0.0 | 0.00 | 0.14 | 0.14 | 91 | 1014.7 |
| 20260904235832 | 59 | 78 | 0.0 | 0.0 | 0.00 | 0.14 | 0.14 | 91 | 1014.7 |
| 20260904235312 | 59 | 77 | 0.0 | 0.0 | 0.00 | 0.14 | 0.14 | 90 | 1014.6 |
| 20260904234814 | 59 | 78 | 0.0 | 0.0 | 0.00 | 0.14 | 0.14 | 90 | 1014.6 |
| 20260904234321 | 59 | 78 | 0.0 | 0.0 | 0.00 | 0.14 | 0.14 | 90 | 1014.6 |
| 20260904233825 | 59 | 78 | 0.0 | 0.0 | 0.00 | 0.14 | 0.14 | 90 | 1014.5 |
| 20260904233324 | 59 | 78 | 0.0 | 0.0 | 0.01 | 0.14 | 0.14 | 90 | 1014.4 |
| 20260904232833 | 59 | 77 | 0.0 | 0.0 | 0.02 | 0.14 | 0.14 | 89 | 1014.4 |
| 20260904232312 | 59 | 77 | 0.0 | 0.0 | 0.04 | 0.14 | 0.14 | 87 | 1014.3 |
| 20260904231813 | 59 | 136 | 0.0 | 0.0 | 0.04 | 0.14 | 0.14 | 85 | 1014.3 |
| 20260904231320 | 59 | 122 | 0.0 | 0.0 | 0.04 | 0.14 | 0.14 | 86 | 1014.3 |
| 20260904230822 | 59 | 64 | 0.0 | 0.0 | 0.04 | 0.14 | 0.14 | 88 | 1014.3 |
| 20260904230336 | 59 | 123 | 0.0 | 1.0 | 0.04 | 0.16 | 0.14 | 87 | 1014.3 |
| 20260904225819 | 59 | 128 | 0.0 | 1.0 | 0.04 | 0.16 | 0.14 | 88 | 1014.3 |
| 20260904225317 | 59 | 111 | 0.0 | 1.0 | 0.04 | 0.16 | 0.14 | 90 | 1014.3 |
| 20260904224819 | 59 | 148 | 0.0 | 0.0 | 0.04 | 0.16 | 0.14 | 91 | 1014.3 |
| 20260904224325 | 58 | 111 | 0.0 | 0.0 | 0.04 | 0.16 | 0.14 | 91 | 1014.3 |
| 20260904223827 | 58 | 92 | 0.0 | 0.0 | 0.03 | 0.15 | 0.13 | 89 | 1014.3 |
| 20260904223334 | 58 | 128 | 0.0 | 3.0 | 0.02 | 0.14 | 0.12 | 86 | 1014.3 |
| 20260904222816 | 59 | 139 | 0.0 | 6.0 | 0.02 | 0.14 | 0.12 | 83 | 1014.4 |
| 20260904222315 | 60 | 84 | 3.0 | 6.0 | 0.00 | 0.12 | 0.10 | 78 | 1014.3 |
| 20260904221824 | 60 | 174 | 2.0 | 6.0 | 0.00 | 0.12 | 0.10 | 77 | 1014.3 |
| 20260904221324 | 60 | 150 | 0.0 | 6.0 | 0.00 | 0.12 | 0.10 | 79 | 1014.2 |
| 20260904220832 | 60 | 117 | 2.0 | 6.0 | 0.01 | 0.12 | 0.10 | 79 | 1014.1 |
| 20260904220337 | 60 | 112 | 3.0 | 5.0 | 0.01 | 0.17 | 0.10 | 78 | 1014.1 |
| 20260904215818 | 60 | 97 | 0.0 | 6.0 | 0.01 | 0.17 | 0.10 | 79 | 1014.0 |
| 20260904215323 | 60 | 101 | 0.0 | 6.0 | 0.01 | 0.17 | 0.10 | 78 | 1014.0 |
| 20260904214827 | 60 | 77 | 2.0 | 6.0 | 0.01 | 0.17 | 0.10 | 78 | 1014.1 |
| 20260904214325 | 61 | 146 | 1.0 | 8.0 | 0.01 | 0.17 | 0.10 | 80 | 1014.0 |
| 20260904213816 | 61 | 91 | 1.0 | 8.0 | 0.01 | 0.17 | 0.10 | 81 | 1013.9 |
| 20260904213314 | 61 | 101 | 1.0 | 4.0 | 0.01 | 0.17 | 0.10 | 84 | 1013.8 |
| 20260904212822 | 61 | 139 | 1.0 | 4.0 | 0.01 | 0.17 | 0.10 | 86 | 1013.8 |
| 20260904212321 | 60 | 143 | 0.0 | 4.0 | 0.01 | 0.17 | 0.10 | 84 | 1013.7 |
| 20260904211831 | 61 | 136 | 1.0 | 7.0 | 0.01 | 0.17 | 0.10 | 82 | 1013.8 |
| 20260904211330 | 62 | 122 | 0.0 | 7.0 | 0.00 | 0.16 | 0.09 | 80 | 1013.8 |
| 20260904210832 | 63 | 212 | 0.0 | 1.0 | 0.00 | 0.16 | 0.09 | 78 | 1013.7 |
| 20260904210312 | 63 | 117 | 0.0 | 1.0 | 0.00 | 0.17 | 0.09 | 72 | 1013.5 |
| 20260904205821 | 63 | 222 | 0.0 | 3.0 | 0.00 | 0.17 | 0.09 | 72 | 1013.5 |
| 20260904205327 | 63 | 156 | 0.0 | 5.0 | 0.00 | 0.17 | 0.09 | 70 | 1013.5 |
| 20260904204829 | 64 | 248 | 1.0 | 7.0 | 0.00 | 0.17 | 0.09 | 69 | 1013.4 |
| 20260904204315 | 65 | 207 | 0.0 | 0.0 | 0.00 | 0.17 | 0.09 | 67 | 1013.3 |
| 20260904203825 | 65 | 224 | 0.0 | 2.0 | 0.00 | 0.17 | 0.09 | 65 | 1013.3 |
| 20260904203324 | 65 | 137 | 0.0 | 3.0 | 0.00 | 0.17 | 0.09 | 64 | 1013.3 |
| 20260904202814 | 66 | 101 | 0.0 | 7.0 | 0.00 | 0.17 | 0.09 | 62 | 1013.2 |
| 20260904202319 | 66 | 196 | 0.0 | 2.0 | 0.00 | 0.17 | 0.09 | 62 | 1013.2 |
| 20260904201821 | 66 | 198 | 0.0 | 7.0 | 0.00 | 0.17 | 0.09 | 63 | 1013.2 |
| 20260904201347 | 65 | 245 | 0.0 | 7.0 | 0.00 | 0.17 | 0.09 | 65 | 1013.2 |
| 20260904200835 | 64 | 143 | 0.0 | 2.0 | 0.00 | 0.17 | 0.09 | 70 | 1013.2 |
| 20260904200334 | 63 | 78 | 0.0 | 4.0 | 0.00 | 0.17 | 0.09 | 71 | 1013.2 |
| 20260904195844 | 63 | 136 | 0.0 | 4.0 | 0.00 | 0.17 | 0.09 | 71 | 1013.2 |
| 20260904195350 | 63 | 124 | 0.0 | 3.0 | 0.00 | 0.17 | 0.09 | 71 | 1013.3 |
| 20260904194857 | 63 | 113 | 0.0 | 0.0 | 0.00 | 0.17 | 0.09 | 73 | 1013.4 |
| 20260904194336 | 63 | 147 | 0.0 | 0.0 | 0.00 | 0.17 | 0.09 | 78 | 1013.5 |
| 20260904193845 | 62 | 140 | 0.0 | 0.0 | 0.00 | 0.17 | 0.09 | 77 | 1013.5 |
| 20260904193348 | 62 | 1 | 0.0 | 0.0 | 0.00 | 0.17 | 0.09 | 75 | 1013.5 |
| 20260904192813 | 62 | 69 | 0.0 | 0.0 | 0.00 | 0.17 | 0.09 | 75 | 1013.5 |
| 20260904192312 | 62 | 69 | 0.0 | 0.0 | 0.00 | 0.17 | 0.09 | 76 | 1013.5 |
| 20260904191822 | 62 | 69 | 0.0 | 0.0 | 0.00 | 0.17 | 0.09 | 78 | 1013.5 |
| 20260904191405 | 61 | 135 | 0.0 | 0.0 | 0.00 | 0.17 | 0.09 | 76 | 1013.5 |
| 20260904190821 | 61 | 115 | 0.0 | 1.0 | 0.01 | 0.17 | 0.09 | 76 | 1013.6 |
| 20260904190321 | 61 | 212 | 0.0 | 1.0 | 0.01 | 0.18 | 0.09 | 78 | 1013.6 |
| 20260904185827 | 61 | 82 | 0.0 | 0.0 | 0.01 | 0.18 | 0.09 | 79 | 1013.6 |
| 20260904185327 | 61 | 108 | 0.0 | 0.0 | 0.01 | 0.18 | 0.09 | 79 | 1013.5 |
| 20260904184836 | 61 | 70 | 0.0 | 0.0 | 0.01 | 0.18 | 0.09 | 81 | 1013.5 |
| 20260904184316 | 60 | 144 | 0.0 | 1.0 | 0.01 | 0.18 | 0.09 | 81 | 1013.5 |
| 20260904183819 | 60 | 144 | 0.0 | 1.0 | 0.01 | 0.18 | 0.09 | 78 | 1013.4 |
| 20260904183325 | 60 | 129 | 0.0 | 0.0 | 0.01 | 0.18 | 0.09 | 83 | 1013.4 |
| 20260904182827 | 60 | 100 | 0.0 | 0.0 | 0.01 | 0.18 | 0.09 | 85 | 1013.4 |
| 20260904182326 | 60 | 130 | 0.0 | 0.0 | 0.01 | 0.18 | 0.09 | 85 | 1013.4 |
| 20260904181312 | 60 | 136 | 0.0 | 2.0 | 0.00 | 0.17 | 0.08 | 86 | 1013.3 |
| 20260904180814 | 60 | 84 | 0.0 | 0.0 | 0.00 | 0.17 | 0.08 | 85 | 1013.2 |
| 20260904180319 | 60 | 323 | 0.0 | 0.0 | 0.00 | 0.17 | 0.08 | 87 | 1013.2 |
| 20260904175817 | 60 | 146 | 0.0 | 0.0 | 0.00 | 0.17 | 0.08 | 86 | 1013.2 |
| 20260904175322 | 59 | 64 | 0.0 | 2.0 | 0.00 | 0.17 | 0.08 | 88 | 1013.2 |
| 20260904174831 | 59 | 117 | 0.0 | 2.0 | 0.00 | 0.17 | 0.08 | 88 | 1013.2 |
| 20260904174336 | 59 | 61 | 0.0 | 3.0 | 0.00 | 0.17 | 0.08 | 90 | 1013.2 |
| 20260904173817 | 58 | 94 | 0.0 | 3.0 | 0.00 | 0.17 | 0.08 | 89 | 1013.2 |
| 20260904173321 | 58 | 85 | 0.0 | 2.0 | 0.00 | 0.17 | 0.08 | 91 | 1013.2 |
| 20260904172830 | 58 | 100 | 0.0 | 2.0 | 0.00 | 0.17 | 0.08 | 91 | 1013.2 |
| 20260904172336 | 58 | 134 | 0.0 | 3.0 | 0.00 | 0.17 | 0.08 | 92 | 1013.1 |
| 20260904171818 | 57 | 119 | 0.0 | 3.0 | 0.00 | 0.17 | 0.08 | 93 | 1013.1 |